Location: Brabourne
(51.1333°N, 1.0000°E)
Time: 22:38:03
(UTC+00:00)

SL-16 R/B - Pass Details

Date: 20 June 2021
Orbit: 985 x 1007 km, 99.5° (Epoch: 02 August)

Event Time Altitude Azimuth Distance (km) Brightness Sun altitude
Exits shadow 02:44:55 - 207° (SSW) 2,975 4.4 -6.9°
Reaches altitude 10° 02:45:37 10° 211° (SSW) 2,755 4.2 -6.8°
Maximum altitude 02:50:47 27° 268° (W) 1,792 3.6 -6.3°
Drops below altitude 10° 02:55:59 10° 325° (NW) 2,760 5.1 -5.8°
Sets 02:58:53 0° 337° (NNW) 3,711 5.9 -5.5°
